Tracking 27402 objects as of 2-Jun-2023
HD Live streaming from Space Station
objects crossing your sky now

COSMOS 1348

Track COSMOS 1348 now!
COSMOS 1348 is classified as:


NORAD ID: 13124
Int'l Code: 1982-029A
Perigee: 6,375.9 km
Apogee: 34,054.8 km
Inclination: 72.0 °
Period: 719.0 minutes
Semi major axis: 26586 km
RCS: 16.1516 m2 (large)
Launch date: April 7, 1982
Source: Commonwealth of Independent States (former USSR) (CIS)
Launch site: PLESETSK MISSILE AND SPACE COMPLEX (PKMTR)
Your satellite tracking list
Your tracking list is empty




NASA's NSSDC Master Catalog

Two Line Element Set (TLE):
1 13124U 82029A   23153.30962983 -.00000076  00000-0  00000+0 0  9999
2 13124  71.9978 187.3854 5205458   3.9785 160.5619  2.00269336301127
Source of the keplerian elements: AFSPC